Location: Domont
(49.0278°N, 2.3264°E)
Time: 10:43:51
(UTC+00:00)

NOAA 18 - Pass Details

Date: 03 July 2022
Orbit: 839 x 860 km, 98.9° (Epoch: 10 August)

Event Time Altitude Azimuth Distance (km) Brightness Sun altitude
Exits shadow 22:14:17 10° 200° (SSW) 2,447 7.2 -14.6°
Maximum altitude 22:19:09 34° 264° (W) 1,384 6.5 -15.0°
Drops below altitude 10° 22:24:10 10° 329° (NNW) 2,505 9.0 -15.3°
Sets 22:26:48 0° 338° (NNW) 3,448 10.3 -15.4°
